Weather Roundup
Issued by NWS Springfield, MO

Home | Current Version | Previous Version | Text Only | Print | Product List | Glossary On
Versions: 1 2 3 4 5 6 7 8 9 10 11 12 13 14 15 16 17 18 19 20 21 22 23 24 25 26 27 28 29 30 31 32 33 34 35 36 37 38 39 40 41 42 43 44 45 46 47 48 49 50
337
NZUS99 KSGF 210407
HRRSGF

HOURLY WEATHER
NATIONAL WEATHER SERVICE SPRINGFIELD MO
1100 PM CDT SUN MAY 20 2018

......SGF CWA......

CITY           SKY/WX    TMP DP  RH WIND       PRES   REMARKS
SPRINGFIELD    MOCLDY    68  64  87 S7        30.04R
JOPLIN         CLOUDY    67  66  97 CALM      30.04R
WEST PLAINS    LGT RAIN  65  64  97 NE5       30.10S
ROLLA          RAIN      64  63  96 E8        30.11S
OSAGE BEACH    CLOUDY    65  64  97 SE7       30.05R
BRANSON        MOCLDY    66  66 100 CALM      30.08R

......SURROUNDING SGF CWA......

CITY           SKY/WX    TMP DP  RH WIND       PRES   REMARKS
CHANUTE        CLOUDY    64  62  93 NW6       30.05S
PARSONS        CLOUDY    62  62 100 NW5       30.06R
COFFEYVILLE    CLOUDY    64  63  96 N5        30.05R
EMPORIA        CLOUDY    61  58  90 CALM      30.08R
GROVE OK       CLOUDY    70  68  94 CALM      30.05R
ROGERS AR      CLOUDY    67  66  97 SE3       30.06R
SILOAM SPRINGS PTCLDY    66  64  94 CALM      30.05S FOG
HARRISON AR    MOCLDY    67  66  97 CALM      30.07S
NEAR YELLVILLE TSTM      69  67  93 NE10      30.07S FOG

......KANSAS AND MISSOURI......

CITY           SKY/WX    TMP DP  RH WIND       PRES   REMARKS
KANSAS CTY INT MOCLDY    63  63 100 NW5       30.03S
DOWNTOWN KC    CLEAR     65  61  87 W6        30.02R
COLUMBIA       CLOUDY    68  64  87 E9        30.03R
SEDALIA        CLOUDY    66  66 100 SE7       30.01F
ST JOSEPH      PTCLDY    62  62 100 NW5       30.03S FOG
ST LOUIS       CLOUDY    74  68  81 E3        30.05S
SPIRIT OF STL  CLOUDY    71  69  93 SW5       30.03S
KIRKSVILLE     CLOUDY    68  65  90 E8        30.02F
WICHITA        CLOUDY    61  59  93 NE5       30.08R
TOPEKA         CLEAR     62  62 100 W5        30.05R FOG
OLATHE         CLEAR     63  63 100 NW5       30.03R

......TENNESSEE......

CITY           SKY/WX    TMP DP  RH WIND       PRES   REMARKS
MEMPHIS        CLOUDY    75  67  76 E17       30.05S
NASHVILLE      CLOUDY    69  66  90 CALM      30.15F

......ARKANSAS.......

CITY           SKY/WX    TMP DP  RH WIND       PRES   REMARKS
FAYETTEVILLE   CLOUDY    65  64  97 CALM      30.06R
FT SMITH       MOCLDY    72  66  81 CALM      30.01S
LITTLE ROCK    TSTM      70  69  97 SE17      30.04R

......OKLAHOMA.......

CITY           SKY/WX    TMP DP  RH WIND       PRES   REMARKS
TULSA          CLOUDY    67  63  87 NW6       30.02R
PONCA CITY     PTCLDY    60  57  89 N5        30.06R
MCALESTER      CLOUDY    68  66  93 CALM      30.03R
OKLAHOMA CITY  PTCLDY    62  60  93 CALM      30.05R

......IOWA............

CITY           SKY/WX    TMP DP  RH WIND       PRES   REMARKS
DES MOINES     LGT RAIN  61  56  83 E7        30.08S
QUAD CITIES    FAIR      60  54  80 E10       30.12R

......ILLINOIS........

CITY           SKY/WX    TMP DP  RH WIND       PRES   REMARKS
QUINCY         LGT RAIN  70  65  84 CALM      30.07S
CHICAGO        CLOUDY    49  42  77 NE7       30.19S





USA.gov is the U.S. government's official web portal to all federal, state and local government web resources and services.